Location: Pcim
(49.7500°N, 19.9670°E)
Time: 20:39:16
(UTC+02:00)

BUGSAT 1 - Visible Passes

Search period start: 22 April 2024 00:00
Search period end: 02 May 2024 00:00
Orbit: 533 x 581 km, 98.1° (Epoch: 21 April)

Date Brightness Start Highest point End Pass type
(mag) Time Alt. Az. Time Alt. Az. Time Alt. Az.
22 Apr ? 20:38:59 10° SSW 20:42:41 37° W 20:46:27 10° NNW visible
23 Apr ? 20:36:48 10° S 20:40:33 39° W 20:44:22 10° NNW visible
24 Apr ? 20:34:36 10° S 20:38:23 42° W 20:42:15 10° NNW visible
25 Apr ? 20:32:23 10° S 20:36:12 44° W 20:40:07 10° NNW visible
26 Apr ? 20:30:09 10° S 20:34:00 47° W 20:37:56 10° NNW visible
27 Apr ? 20:27:54 10° S 20:31:47 50° W 20:35:46 10° NNW visible
28 Apr ? 20:25:37 10° S 20:29:32 54° W 20:33:32 10° NNW visible
